Regional Weather Roundup
Issued by NWS

Home | Current Version | Previous Version | Graphics & Text | Print | Product List | Glossary On
Versions: 1 2 3 4 5 6 7 8 9 10 11 12 13 14 15 16 17 18 19 20 21 22 23 24 25 26 27 28 29 30 31 32 33 34 35 36 37 38 39 40 41 42 43 44 45 46 47 48 49 50
000
ASUS43 KLOT 290800
RWRIL

ILLINOIS REGIONAL WEATHER ROUNDUP
NATIONAL WEATHER SERVICE CHICAGO/ROMEOVILLE IL
200 AM CST THU JAN 29 2015

NOTE: "FAIR" INDICATES FEW OR NO CLOUDS BELOW 12,000 FEET WITH NO
SIGNIFICANT WEATHER AND/OR OBSTRUCTIONS TO VISIBILITY.

* THESE STATIONS ARE NOT UNDER NWS QUALITY CONTROL. THEY ALSO MAY NOT
  REPORT WEATHER SUCH AS PRECIPITATION OR FOG.

ILZ001-002-007-009-015-016-024-290900-
NORTHWEST ILLINOIS

CITY           SKY/WX    TMP DP  RH WIND       PRES   REMARKS
MOLINE         PTCLDY    37  31  78 NW5       29.67R WCI  33
STERLING*      MOCLDY    30  27  86 E5        29.70S WCI  25
$$

ILZ003-004-008-010-011-017-018-290900-
NORTH CENTRAL ILLINOIS

CITY           SKY/WX    TMP DP  RH WIND       PRES   REMARKS
ROCKFORD       CLOUDY    34  27  75 SE6       29.74S WCI  29
$$

ILZ005-006-012>014-019>023-290900-
NORTHEAST ILLINOIS

CITY           SKY/WX    TMP DP  RH WIND       PRES   REMARKS
CHICAGO-OHARE  CLOUDY    35  26  69 S10       29.75F WCI  27
CHICAGO-MIDWAY CLOUDY    38  26  62 S13       29.76F WCI  30
AURORA         CLOUDY    35  27  72 SE12      29.74F WCI  27
WAUKEGAN       CLOUDY    33  26  75 SE5       29.75F WCI  29
DUPAGE AIRPORT CLOUDY    35  27  72 S10       29.74F WCI  27
WHEELING       CLOUDY    35  26  69 S9        29.77F WCI  28
NORTHERLY ISL    N/A     36  25  65 S10         N/A  WCI  28
$$

LMZ740>746-290900-
SOUTHERN LAKE MICHIGAN

STATION/POSITION SKY/WX   TEMP    WIND        PRES    VSBY  WAVE
                          AIR SEA DIR/SP/G                  HT/PER
                          (F)     (DEG/KT/KT) (MB)    (MI)  (FT/S)
WAUKEGAN HARBOR            33     150/  9/ 10   N/A
HARRISON CRIB              34     170/ 19/ 21   N/A
BURNHAM HARBOR             35     190/  8/ 14   N/A
CALUMET HARBOR             35     160/  9/ 12   N/A
MICHIGAN CITY              35     140/ 14/ 21   N/A
$$

ILZ025>027-034>036-040-047-049-050-058-095>099-290900-
WEST-CENTRAL ILLINOIS

CITY           SKY/WX    TMP DP  RH WIND       PRES   REMARKS
QUINCY         PTCLDY    50  37  61 W18G30    29.72R
$$

ILZ028>032-037-038-041>044-048-051>054-059>061-290900-
CENTRAL ILLINOIS

CITY           SKY/WX    TMP DP  RH WIND       PRES   REMARKS
DECATUR        MOCLDY    42  32  67 S17G29    29.75F
PEORIA         MOCLDY    38  32  79 S10       29.69F WCI  31
SPRINGFIELD    CLOUDY    43  34  70 S21       29.73F
TAYLORVILLE    NOT AVBL
$$

ILZ033-039-045-046-055>057-062-063-290900-
EAST-CENTRAL ILLINOIS

CITY           SKY/WX    TMP DP  RH WIND       PRES   REMARKS
CHAMPAIGN      MOCLDY    37  30  75 S17G26    29.77F WCI  27
MATTOON        CLOUDY    39  29  67 S15       29.79F WCI  31
$$

ILZ079-100>102-290900-
SOUTHWEST ILLINOIS

CITY           SKY/WX    TMP DP  RH WIND       PRES   REMARKS
BELLEVILLE     MOCLDY    49  39  69 VRB6      29.80S
CAHOKIA*       MOCLDY    54  39  57 S14G22    29.78S
$$

ILZ064>066-069>071-074>076-080>082-084>086-088>090-092>094-290900-
SOUTH-CENTRAL ILLINOIS

CITY           SKY/WX    TMP DP  RH WIND       PRES   REMARKS
CARBONDALE     CLOUDY    50  33  52 SW17G25   29.87F
MT. VERNON     CLOUDY    46  34  61 S20       29.85F
$$

ILZ067-068-072-073-078-083-087-091-290900-
SOUTHEAST ILLINOIS

CITY           SKY/WX    TMP DP  RH WIND       PRES   REMARKS
LAWRENCEVILLE  CLOUDY    40  33  76 S18       29.88F
$$

ABBREVIATIONS USED IN REMARKS
   TC - TEMPERATURE IN CELSIUS
  WCI - WIND CHILL INDEX
   HX - HEAT INDEX
  VSB - VISIBILITY
$$




USA.gov is the U.S. government's official web portal to all federal, state and local government web resources and services.